615  
ASUS44 KMEG 200100  
RWRMEG  
MEMPHIS CWA HOURLY WEATHER ROUNDUP  
NATIONAL WEATHER SERVICE MEMPHIS TN  
800 PM CDT WED SEP 19 2018  
   
..WEST TENNESSEE
 
 
 
CITY SKY/WX TMP DP RH WIND PRES REMARKS
 
MEMPHIS INTL FAIR 86 69 56 CALM 29.94S HX 90  
NWS MEMPHIS N/A 80 N/A N/A MISG N/A  
JACKSON FAIR 77 73 87 SW3 29.96S  
DYERSBURG FAIR 80 71 74 CALM 29.96S  
 
   
..EASTERN ARKANSAS
 
 
 
CITY SKY/WX TMP DP RH WIND PRES REMARKS
 
JONESBORO FAIR 80 76 87 CALM 29.93R  
WEST MEMPHIS FAIR 81 74 79 CALM 29.92S  
BATESVILLE CLEAR 86 71 60 SE3 29.94R HX 91  
NEWPORT FAIR 82 74 76 SE6 29.93S  
WALNUT RIDGE FAIR 84 72 67 S7 29.93R  
BLYTHEVILLE FAIR 83 69 62 CALM 29.95R  
SEARCY FAIR 81 77 88 CALM 29.93R  
STUTTGART FAIR 87 72 60 E5 29.93R HX 93  
PINE BLUFF FAIR 83 73 72 CALM 29.92R  
MONTICELLO FAIR 82 74 76 CALM 29.91S  
 
   
..NORTH MISSISSIPPI
 
 
 
CITY SKY/WX TMP DP RH WIND PRES REMARKS
 
TUPELO FAIR 84 64 50 CALM 29.95R  
OLIVE BRANCH CLEAR 84 84 100 CALM 29.94S HX 104  
GREENWOOD FAIR 78 74 87 CALM 29.93R  
GOLDEN TRIANGL FAIR 82 72 71 CALM 29.95R  
 
   
..SOUTHEAST MISSOURI
 
 
 
CITY SKY/WX TMP DP RH WIND PRES REMARKS
 
WEST PLAINS CLEAR 79 71 76 CALM 29.99R  
POPLAR BLUFF FAIR 81 77 88 CALM 29.93S  
CAPE GIRARDEAU FAIR 81 75 82 E5 29.94S  
 
   
..NORTHWEST ALABAMA
 
 
 
CITY SKY/WX TMP DP RH WIND PRES REMARKS
 
MUSCLE SHOALS FAIR 81 64 56 CALM 29.98R  
 
   
..MIDDLE TENNESSEE
 
 
 
CITY SKY/WX TMP DP RH WIND PRES REMARKS
 
NASHVILLE FAIR 88 65 46 N5 29.99R HX 90  
CLARKSVILLE FAIR 80 71 74 CALM 29.98R  
 
   
..WESTERN KENTUCKY
 
 
 
CITY SKY/WX TMP DP RH WIND PRES REMARKS
 
PADUCAH FAIR 76 73 91 CALM 29.96R  
 
   
..CENTRAL ARKANSAS
 
 
 
CITY SKY/WX TMP DP RH WIND PRES REMARKS
 
LITTLE ROCK FAIR 84 76 76 S3 29.92R HX 93  
 
SKY/WX REPORTED AS FAIR MEANS FEW OR NO CLOUDS BELOW  
12 THOUSAND FEET.  
 
 
 
CLICK HERE TO GO TO PREVIOUS BULLETINS.

The Nexlab TN Page
The Nexlab MS Page
The Nexlab AR Page Main Text Page